Overview Statistics Trail Chart Weather Telemetry Raw packets
 

This is the latest recevied weather packets stored in our database for station/object K0QED. If no packets are shown the sender has not sent any weather packets the latest 10 day(s).

<< 95 96 97 98 99 100 101 >>
Time Temp. Humidity Pressure Rain* Wind** Luminosity Snow
1787915053 15.56° C 55% 1029.1 hPa 0 mm - 0 W/m² -
1787914751 15.56° C 53% 1029.1 hPa 0 mm - 0 W/m² -
1787914446 15.56° C 53% 1029.1 hPa 0 mm - 0 W/m² -
1787914142 15.56° C 52% 1029 hPa 0 mm - 0 W/m² -
1787913841 15.56° C 53% 1029.1 hPa 0 mm - 0 W/m² -
1787913535 15.56° C 52% 1029.2 hPa 0 mm - 0 W/m² -
1787913235 15° C 54% 1029.2 hPa 0 mm - 0 W/m² -
1787912934 15° C 55% 1029.4 hPa 0 mm - 0 W/m² -
1787912633 15.56° C 54% 1029.2 hPa 0 mm - 0 W/m² -
1787912333 15.56° C 54% 1029.1 hPa 0 mm - 0 W/m² -
1787912032 16.11° C 52% 1029 hPa 0 mm - 0 W/m² -
1787911728 16.11° C 53% 1029.2 hPa 0 mm - 0 W/m² -
1787911428 15.56° C 53% 1029.4 hPa 0 mm - 0 W/m² -
1787911124 15.56° C 54% 1029.1 hPa 0 mm - 0 W/m² -
1787910824 16.11° C 54% 1029.4 hPa 0 mm - 0 W/m² -
1787910519 15.56° C 55% 1029.2 hPa 0 mm - 0 W/m² -
1787910215 15.56° C 56% 1029.2 hPa 0 mm - 0 W/m² -
1787909913 15.56° C 55% 1029.4 hPa 0 mm - 0 W/m² -
1787909612 15.56° C 56% 1029.2 hPa 0 mm - 0 W/m² -
1787909307 15° C 56% 1029.6 hPa 0 mm - 0 W/m² -
1787909002 15° C 59% 1029.7 hPa 0 mm - 0 W/m² -
1787908701 15° C 60% 1029.5 hPa 0 mm - 0 W/m² -
1787908396 15° C 60% 1029.5 hPa 0 mm - 0 W/m² -
1787908095 15° C 61% 1029.7 hPa 0 mm - 0 W/m² -
1787907791 14.44° C 62% 1029.9 hPa 0 mm - 0 W/m² -

* Rain latest hour (hover to see other rain measurements)
** Current wind speed in m/s (hover to see current wind gust speed)